Regional Weather Roundup
Issued by NWS

Home | Current Version | Previous Version | Graphics & Text | Print | Product List | Glossary On
Versions: 1 2 3 4 5 6 7 8 9 10 11 12 13 14 15 16 17 18 19 20 21 22 23 24 25 26 27 28 29 30 31 32 33 34 35 36 37 38 39 40 41 42 43 44 45 46 47 48 49 50
000
ASUS45 KBOU 130107
RWRCO

WEATHER ROUNDUP FOR COLORADO
NATIONAL WEATHER SERVICE DENVER/BOULDER CO
600 PM MST FRI FEB 12 2016

NOTE: "FAIR" INDICATES FEW OR NO CLOUDS BELOW 12000 FEET WITH NO
SIGNIFICANT WEATHER AND/OR OBSTRUCTIONS TO VISIBILITY.

COZ001>005-013-030-031-130200-
...NORTHWEST COLORADO...

CITY           SKY/WX    TMP DP  RH WIND       PRES   REMARKS
CRAIG          FAIR      25  19  78 SW5       30.33S WCI  19
HAYDEN         FAIR      30  19  64 SE5       30.33S WCI  25
MEEKER         FAIR      35  25  66 E3        30.31S
MOUNT WERNER   NOT AVBL
STEAMBOAT SPGS FAIR      31  22  68 CALM      30.35R
WALDEN         FAIR      37  23  56 S7        30.34S
$$

COZ006>008-011-130200-
...WEST CENTRAL VALLEYS...

CITY           SKY/WX    TMP DP  RH WIND       PRES   REMARKS
GRAND JUNCTION FAIR      40  30  67 N6        30.33S
MONTROSE       FAIR      44  28  53 E5        30.35R
EAGLE          CLEAR     43  27  52 CALM      30.35S
RIFLE          FAIR      39  22  50 CALM      30.33S
DELTA          FAIR      45  32  60 SW3       30.34R
NUCLA          FAIR      52  23  32 CALM      30.37S
$$

COZ017>023-064>068-130200-
...SOUTHWEST COLORADO...

CITY           SKY/WX    TMP DP  RH WIND       PRES   REMARKS
DURANGO        FAIR      39  22  50 NE3       30.36R
CORTEZ         FAIR      44  26  49 CALM      30.34R
PAGOSA SPRINGS FAIR      38  25  60 CALM      30.40R
TELLURIDE      FAIR      45  18  33 CALM      30.46R
WOLF CREEK PAS FAIR      32  16  51 SW12      30.58S WCI  23
$$

COZ009-010-012-014-032>034-037-058>063-130200-
...CENTRAL COLORADO...

CITY           SKY/WX    TMP DP  RH WIND       PRES   REMARKS
ASPEN          FAIR      39  23  52 S7        30.38R
BUENA VISTA    FAIR      47  21  35 W9        30.33S
COPPER MTN     FAIR      34  18  51 W21G28    30.50S WCI  22
BERTHOUD PASS  FAIR      28  18  64 NW31      30.46F WCI  12
COTTONWOOD PAS FAIR      46  14  27 W18G24    30.41S
GUNNISON       FAIR      18   9  68 NE6       30.48S WCI   9
KREMMLING      FAIR      19  14  79 CALM      30.40R
LEADVILLE      FAIR      38  17  42 N5        30.42R
MONARCH PASS   FAIR      32  16  51 W18G26    30.62S WCI  20
SALIDA         NOT AVBL
SUNLIGHT       FAIR      34  23  64 CALM      30.51S
WILKERSON PASS FAIR      36  19  51 SW7       30.49S
$$

COZ069>075-130200-
...SAN LUIS VALLEY/SANGRE DE CRISTO MOUNTAINS...

CITY           SKY/WX    TMP DP  RH WIND       PRES   REMARKS
ALAMOSA        FAIR      45  23  42 SW5       30.36R
LA VETA PASS   FAIR      39  19  45 S7        30.45F
SAGUACHE       FAIR      34  23  64 NE6       30.40S WCI  29
$$

COZ035-036-038>040-130200-
...NORTHERN COLORADO FRONT RANGE...

CITY           SKY/WX    TMP DP  RH WIND       PRES   REMARKS
DENVER INTL AP FAIR      39  31  72 NE6       30.24R
DMNS CITY PARK   N/A     45  31  59 N5G15     30.25R
AURORA         PTCLDY    39  34  82 NE8       30.25R
FRONT RANGE AP PTCLDY    39  32  75 N3        30.26R
ERIE MUNI ARPT FAIR      41  32  70 N5        30.26R
BOULDER MUN AP FAIR      41  32  70 N3        30.26R
CENTENNIAL     FAIR      46  33  60 N8        30.24R
BROOMFIELD     PTCLDY    45  32  61 N8        30.25R
FORT COLLINS   FAIR      41  28  60 SE6       30.28R
LONGMONT       FAIR      44  32  61 N3        30.28R
$$

COZ041-046-047-076>085-087-088-130200-
...PIKES PEAK/PALMER DIVIDE AND SOUTHERN FOOTHILLS...

CITY           SKY/WX    TMP DP  RH WIND       PRES   REMARKS
COLO. SPRINGS  FAIR      46  30  53 E10       30.28R
A. F. ACADEMY  FAIR      46  27  47 S5        30.27R
SCHRIEVER AFB  FAIR      45  27  50 E7        30.28R
ELLICOTT       FAIR     N/A N/A N/A SE9       30.27R
FALCON         FAIR      41  29  64 SE6       30.30R
FORT CARSON    FAIR      52  28  39 VRB5      30.26R
LIMON          FAIR      39  30  70 SE6       30.25R
MONUMENT HILL  FAIR      39  28  65 S12       30.29S
TRINIDAD       FAIR      52  20  28 SW10      30.25R
$$

COZ042>045-048>051-090-091-130200-
...NORTHEAST COLORADO...

CITY           SKY/WX    TMP DP  RH WIND       PRES   REMARKS
GREELEY ARPT   FAIR      37  30  75 SE6       30.28R
AKRON          CLOUDY    31  31 100 SE20      30.28R FOG     WCI  19
BURLINGTON     CLOUDY    32  29  88 SE17      30.32R FOG     WCI  21
WRAY           CLOUDY    33  31  92 E10       30.34S WCI  25
STERLING       CLOUDY    34  32  93 SE7       30.31R WCI  28
HOLYOKE        CLOUDY    34  32  93 SE13      30.35R WCI  25
FORT MORGAN    FAIR      34  31  89 E12       30.28S WCI  25
$$

COZ086-089-092>099-130200-
...SOUTHEAST COLORADO...

CITY           SKY/WX    TMP DP  RH WIND       PRES   REMARKS
PUEBLO         FAIR      53  31  42 NE10      30.21R
LA JUNTA       FAIR      58  30  34 NE7       30.18S
LAMAR          FAIR      53  29  39 SE14      30.24R
SPRINGFIELD      N/A     48  25  40 SE15      30.28R
$$




USA.gov is the U.S. government's official web portal to all federal, state and local government web resources and services.